Theta_e
292 286 281 283 285 285 284 283 281 285 289 286 284 285 287 290 291 290 291 290 291 292 295 296 297 299 298 298 298 299 303 320 326 327 325 323 321 321 321 322 323 323 325 319
286 283 286 288 288 286 284 281 280 286 289 286 284 284 288 290 290 290 290 290 291 293 295 297 297 298 299 299 299 301 301 305 320 326 325 324 322 320 320 322 323 324 321 316
282 286 288 287 284 283 283 281 281 280 285 286 284 280 283 288 290 291 292 293 293 292 295 297 300 299 300 300 300 301 302 302 306 321 325 323 322 320 319 319 321 320 317 310
285 288 286 284 283 285 279 285 284 282 279 269 283 272 279 285 286 289 291 289 290 293 296 299 300 299 299 300 302 303 304 302 304 316 320 321 318 315 317 319 319 314 310 306
283 284 283 282 284 286 282 286 284 283 279 275 275 271 279 285 284 286 289 290 290 293 296 297 298 299 299 299 300 303 304 305 304 304 316 318 318 317 318 317 313 306 305 302
285 289 286 285 287 287 288 284 284 283 278 266 274 273 276 279 283 286 288 290 291 292 294 296 297 298 299 300 300 302 302 304 305 305 309 314 318 315 314 312 305 303 303 299
283 284 287 288 283 287 285 279 268 266 265 267 278 273 276 284 286 287 287 288 290 292 293 294 294 296 297 298 298 299 300 301 303 305 306 313 314 315 311 305 304 301 298 295
275 274 283 287 283 279 279 278 268 260 265 270 278 269 277 286 289 288 289 289 291 292 293 294 294 295 295 296 296 297 298 299 302 303 306 312 314 316 311 306 305 301 299 296
276 276 284 286 285 283 281 276 282 269 271 269 272 278 283 286 286 287 287 289 290 292 292 292 293 294 294 294 294 295 295 297 299 301 303 309 314 314 309 307 304 303 298 294
281 272 282 283 285 285 281 284 272 271 261 260 269 273 274 281 283 285 286 288 289 290 289 290 293 292 293 293 294 295 296 296 297 299 301 306 313 311 308 307 302 297 293 292
283 277 278 281 278 278 278 277 278 278 273 267 266 271 281 278 283 283 286 288 289 288 288 290 291 292 292 293 293 294 295 296 297 299 301 308 312 308 306 301 296 293 292 291
283 278 270 276 282 284 281 278 279 268 268 273 273 272 284 284 285 286 286 288 287 288 288 290 290 290 290 290 291 293 297 303 298 299 302 310 305 302 299 296 294 292 290 290
282 273 265 271 278 282 278 280 280 279 277 272 268 271 284 285 284 286 286 286 285 287 289 288 289 288 287 289 289 294 299 299 299 301 306 301 298 296 293 292 291 290 289 288
285 275 271 268 272 276 274 276 278 276 269 272 273 274 279 281 282 284 286 285 285 287 286 287 287 286 286 288 288 292 300 302 302 299 298 296 295 294 292 290 290 289 288 287
279 270 274 276 277 277 276 276 276 274 275 271 274 275 278 281 282 285 287 285 285 285 285 286 285 285 286 287 286 291 296 298 298 296 295 293 293 291 290 289 288 287 288 287
281 267 270 265 273 275 273 275 275 275 275 275 276 275 282 284 285 286 285 284 284 283 285 285 285 285 285 286 286 290 291 294 295 294 292 291 290 289 288 287 286 285 285 286
278 274 265 261 271 268 265 271 274 275 277 277 274 279 282 282 285 284 283 285 282 283 284 284 284 284 285 285 287 288 289 291 291 290 289 288 287 286 285 285 285 285 285 286
272 272 270 263 263 258 274 279 278 277 278 279 279 281 283 284 284 285 286 282 283 284 284 284 284 284 285 285 287 287 287 286 287 287 287 286 286 285 285 285 285 285 286 286
279 275 264 260 259 270 274 278 278 275 275 281 281 282 282 282 282 284 285 285 285 284 284 284 285 285 285 285 286 286 285 285 285 284 285 286 286 285 285 285 285 286 285 285
278 280 272 263 256 257 272 280 281 279 269 282 281 280 279 280 276 281 284 286 285 285 284 284 285 285 284 284 285 285 285 285 284 284 284 285 286 286 285 285 285 286 286 284
269 269 269 269 263 268 278 280 281 267 274 280 280 280 280 278 279 283 285 285 285 284 284 285 285 284 284 285 285 284 284 283 284 285 285 285 286 285 285 285 285 285 284 283
268 266 265 268 264 263 279 278 275 280 281 281 281 281 280 280 282 284 284 284 284 283 284 285 285 284 285 285 285 284 283 284 285 285 285 285 285 285 285 284 284 284 284 282
267 274 270 272 272 279 280 279 283 283 281 280 280 280 281 280 282 283 283 283 283 282 283 284 285 284 284 284 285 283 284 285 284 285 284 284 285 285 285 285 284 282 281 280
273 276 272 274 277 280 282 283 283 283 281 281 281 279 280 280 282 282 283 282 282 282 281 282 285 284 283 284 284 284 285 286 286 285 284 284 284 283 282 282 282 281 280 279
275 275 273 272 277 278 279 280 280 281 281 280 280 279 280 281 280 281 281 281 281 281 281 281 282 282 282 283 283 284 285 286 283 282 282 281 281 281 280 280 280 280 279 281
275 274 272 273 277 277 277 278 279 278 278 278 278 278 280 280 280 280 280 280 280 280 279 279 280 281 281 282 281 281 282 282 281 280 279 279 280 279 278 278 277 284 285 286
Wind_Speed
3 2 6 8 6 6 7 9 11 13 14 15 12 24 22 16 21 22 19 12 10 9 9 8 7 7 8 9 9 9 9 8 13 12 13 12 12 11 12 12 15 15 14 13
1 2 7 2 2 4 9 10 10 10 6 14 15 26 25 19 16 11 17 13 11 10 7 7 6 7 8 8 8 9 9 10 10 13 13 11 12 11 12 12 14 16 13 14
1 4 3 3 6 8 9 8 7 10 12 11 11 14 3 12 15 12 14 17 10 2 5 6 6 6 7 8 8 8 9 12 11 16 12 13 13 12 12 12 10 10 15 14
3 4 2 5 8 6 7 6 10 14 10 2 8 13 4 11 9 12 16 7 7 4 4 6 7 8 7 7 8 8 8 9 12 12 16 16 13 14 10 11 11 9 13 14
2 1 3 4 3 2 8 10 15 16 12 6 6 4 9 20 14 10 13 9 9 7 7 7 8 8 9 7 8 8 9 9 10 15 16 15 21 13 13 11 14 12 8 12
6 2 1 4 6 6 10 10 19 14 2 1 9 6 15 13 10 13 9 12 7 8 8 10 12 17 16 15 11 8 8 12 16 16 17 22 23 21 16 15 13 11 10 9
2 8 5 2 6 4 1 7 6 7 3 8 9 10 12 15 15 21 15 8 11 10 12 18 20 16 16 17 15 15 20 23 20 20 20 22 21 23 26 21 16 17 12 9
2 5 7 8 4 2 3 1 3 5 4 16 14 8 8 11 16 7 9 13 13 15 14 15 20 24 25 26 24 22 20 23 20 21 21 19 20 15 16 22 18 15 15 14
3 3 4 6 3 2 3 3 1 3 8 6 7 10 16 15 6 8 13 12 17 16 15 25 24 23 24 25 27 27 27 27 22 22 19 18 18 19 17 23 20 16 15 13
4 5 1 3 1 8 5 4 4 1 5 7 8 17 14 8 7 15 11 21 20 12 21 26 25 26 24 24 21 22 24 26 25 24 21 20 18 15 15 17 20 20 18 20
4 1 3 1 7 6 3 3 4 5 3 5 7 17 4 5 16 9 21 20 21 14 26 25 25 24 22 22 20 21 23 26 24 23 21 22 18 18 17 16 17 19 21 22
2 1 5 9 6 5 3 4 4 4 8 6 6 24 16 18 7 23 18 23 14 18 24 25 26 23 19 20 20 22 20 20 22 20 20 17 17 17 17 12 19 18 21 20
4 3 4 9 3 1 3 5 7 6 6 18 6 17 5 13 27 23 26 16 14 24 23 25 20 19 20 18 20 20 23 12 15 17 15 19 19 20 19 15 15 19 20 19
4 3 7 8 5 3 8 10 9 7 7 17 20 37 38 27 25 25 19 15 20 16 26 22 19 18 18 16 17 17 11 12 14 16 18 18 20 18 20 20 16 18 20 22
3 6 6 15 15 15 19 23 20 20 25 15 30 26 32 28 29 23 19 18 19 23 26 20 19 17 15 15 13 13 10 4 15 17 18 16 16 18 19 21 17 16 17 19
5 5 2 6 7 6 15 22 23 24 23 21 28 32 27 20 20 20 21 20 17 28 23 19 18 17 14 13 10 10 8 7 10 16 17 17 18 17 18 19 18 16 17 15
7 3 1 7 3 8 11 12 7 6 5 10 16 21 16 20 18 21 21 13 22 24 21 18 16 14 12 10 7 7 7 8 9 14 17 17 18 18 17 18 18 18 17 16
5 5 1 6 6 3 9 14 12 14 15 13 14 14 11 17 20 21 6 12 19 20 18 16 13 12 10 7 6 6 7 9 11 11 14 16 17 18 18 18 18 17 16 15
5 5 2 2 2 14 11 2 2 3 7 8 5 9 15 17 15 1 11 14 16 16 15 12 11 10 9 7 6 8 8 9 12 12 12 14 17 18 17 18 17 15 15 13
4 3 5 3 2 8 7 5 3 3 7 3 4 8 14 15 13 10 21 17 17 16 13 12 11 9 9 9 7 10 9 11 12 12 12 12 14 16 17 17 15 11 12 12
4 1 14 8 5 12 13 11 3 4 6 1 3 7 11 8 5 17 15 15 12 13 14 12 9 9 9 8 10 12 12 12 11 13 14 13 14 16 16 15 12 13 12 11
10 10 6 6 5 15 9 3 6 5 2 2 5 6 8 9 12 12 12 12 13 15 14 13 10 10 9 9 11 13 13 10 13 14 15 14 14 11 12 15 13 12 11 10
4 10 10 15 14 7 7 7 5 1 4 4 6 6 5 9 7 12 12 11 9 11 11 10 10 11 11 11 10 13 10 11 13 14 14 14 14 12 12 13 11 9 8 7
5 7 4 3 11 23 19 15 12 10 9 7 6 5 5 7 8 8 8 8 8 7 9 9 9 11 10 10 11 11 11 12 13 14 13 11 11 10 9 7 6 7 6 6
6 9 7 9 17 17 19 15 12 11 7 4 2 2 5 6 6 6 6 6 7 7 7 6 6 7 8 8 9 8 8 10 11 10 9 8 7 8 7 6 4 5 2 5
8 10 9 11 10 8 4 5 3 2 1 3 3 2 3 3 6 5 6 5 5 6 6 6 6 6 6 6 6 7 6 7 9 8 5 5 5 5 4 5 4 9 6 7
Wind_Direction
73 318 54 50 24 339 305 288 287 288 297 298 285 291 290 290 285 282 277 281 291 286 281 279 258 259 267 263 274 271 281 234 204 225 191 199 203 196 196 187 187 177 178 151
144 45 78 27 271 272 275 276 275 271 295 315 295 292 284 275 269 283 287 278 264 256 274 271 269 254 244 254 260 268 267 285 238 214 210 193 196 192 198 191 185 178 159 152
286 49 90 308 310 297 281 274 296 290 318 276 341 285 276 321 285 272 285 279 274 281 291 311 312 315 313 304 271 256 255 258 276 218 234 188 188 191 193 188 183 170 156 148
279 92 15 304 288 276 292 357 322 305 328 273 62 291 263 258 272 288 297 340 329 303 288 273 269 271 266 265 277 293 283 260 256 248 218 224 192 180 193 181 170 158 152 146
80 34 357 289 264 45 250 342 300 283 277 306 255 248 270 302 301 306 326 313 306 300 260 260 261 262 259 256 251 243 254 276 268 249 230 226 190 192 172 171 163 146 147 139
236 136 166 286 320 255 287 293 286 276 182 279 239 165 294 303 307 309 303 309 328 330 329 322 316 305 289 281 274 250 245 254 264 256 244 227 234 174 180 166 154 153 152 145
302 198 146 255 286 171 142 333 323 349 345 231 325 329 252 282 297 313 300 0 339 326 324 317 306 315 312 303 293 282 273 267 255 252 244 222 218 205 176 161 161 158 151 156
358 305 165 161 256 342 319 314 179 273 299 297 295 240 257 306 300 314 2 341 332 316 320 329 310 299 294 287 282 274 265 261 254 247 244 234 207 199 185 171 166 165 166 159
330 261 96 185 261 164 99 201 354 306 248 271 241 266 307 279 296 345 332 329 309 318 322 316 304 291 295 291 286 277 268 260 250 246 245 239 205 184 200 176 166 164 151 149
75 296 217 111 223 236 223 16 37 302 302 299 285 294 250 302 316 316 315 318 321 315 319 318 305 305 300 291 281 271 263 254 247 242 237 238 193 171 185 167 163 156 146 143
68 145 277 225 197 186 160 235 199 214 206 248 296 286 206 283 301 306 322 318 319 328 325 308 308 304 300 293 285 272 259 247 230 227 229 221 184 166 155 161 149 153 142 144
97 256 266 241 281 343 268 231 252 148 265 240 297 269 289 267 282 334 311 313 332 320 316 312 307 307 304 300 295 290 281 254 207 208 222 178 147 139 140 164 145 149 141 141
158 237 320 329 25 333 208 198 226 253 286 252 260 271 260 307 315 309 310 318 314 330 317 312 309 309 311 306 304 305 297 192 187 195 169 136 142 137 131 136 141 136 135 135
152 234 203 223 220 21 280 269 264 275 264 272 241 276 283 297 301 307 309 326 331 316 314 314 312 315 316 311 309 318 323 121 126 127 126 132 137 142 136 134 141 139 141 138
171 238 224 261 276 281 271 272 273 253 251 246 273 275 285 293 300 301 318 316 321 322 320 315 315 319 319 315 315 331 348 82 127 127 125 128 129 129 127 123 134 136 139 141
169 273 46 278 268 276 278 272 260 258 265 259 265 271 277 288 313 311 313 328 327 319 314 316 317 321 321 317 322 334 5 27 118 123 121 125 124 126 131 128 131 130 130 138
168 215 18 266 336 326 293 252 239 246 210 253 270 287 317 308 315 315 324 340 320 314 319 321 322 321 321 317 328 351 22 65 81 110 120 124 125 125 124 127 129 129 129 131
153 128 217 274 355 309 240 308 245 253 269 264 275 291 303 310 310 309 51 315 320 324 325 327 325 323 325 330 10 36 42 73 88 100 113 117 120 120 123 126 126 126 127 133
146 151 278 210 252 291 292 96 91 44 282 272 286 305 308 324 312 104 344 349 336 325 328 329 328 332 334 3 25 66 63 81 94 94 101 115 121 123 128 122 127 132 125 121
278 170 177 66 174 247 244 146 89 298 291 111 350 300 330 342 350 324 340 354 340 337 339 339 343 356 10 8 44 69 64 78 86 98 99 103 107 114 116 118 118 114 109 109
143 177 224 222 249 275 254 258 178 93 245 260 303 317 337 336 266 300 328 348 347 338 343 351 351 16 17 25 59 67 71 70 82 88 91 95 99 104 104 105 107 101 101 102
163 160 191 188 210 265 181 101 182 215 236 346 329 328 322 309 314 318 343 356 353 349 350 358 7 22 21 32 63 70 70 77 83 87 90 90 92 95 98 97 95 100 107 104
224 189 179 189 212 240 191 222 215 316 283 313 315 308 316 307 321 330 341 354 359 355 347 350 15 29 32 41 53 67 63 73 80 82 85 87 87 86 93 104 112 110 109 115
242 232 226 119 245 247 260 262 263 265 260 267 253 294 299 297 324 326 339 354 358 5 1 348 7 31 41 47 52 56 63 70 77 81 82 85 94 94 92 93 102 111 119 125
185 140 195 261 278 287 278 269 261 264 243 199 214 267 283 307 328 328 340 356 355 7 7 7 18 35 26 39 51 56 73 87 82 82 81 83 90 92 83 67 96 109 102 141
180 181 185 235 204 204 234 175 178 142 131 168 165 338 334 342 322 342 340 356 6 12 7 23 29 42 20 40 50 40 48 78 99 86 80 89 101 97 103 109 84 68 120 126